Overview Statistics Trail Chart Weather Telemetry Raw packets
 

This is the latest recevied weather packets stored in our database for station/object KE5QKR. If no packets are shown the sender has not sent any weather packets the latest 10 day(s).

<< 35 36 37 38 39 40 41 >>
Time Temp. Humidity Pressure Rain* Wind** Luminosity Snow
1777747842 21.11° C 56% 1014 hPa 0 mm - 815 W/m² -
1777747532 20.56° C 55% 1014.1 hPa 0 mm - 832 W/m² -
1777747228 21.11° C 56% 1014 hPa 0 mm - 840 W/m² -
1777746925 20.56° C 56% 1014.3 hPa 0 mm - 841 W/m² -
1777746621 20.56° C 55% 1014.3 hPa 0 mm - 847 W/m² -
1777746316 20.56° C 58% 1014.3 hPa 0 mm - 851 W/m² -
1777746012 21.11° C 59% 1014.3 hPa 0 mm - 869 W/m² -
1777745710 20.56° C 62% 1014.3 hPa 0 mm - 925 W/m² -
1777745409 20.56° C 61% 1014.2 hPa 0 mm - 864 W/m² -
1777745105 20.56° C 63% 1014.4 hPa 0 mm - 911 W/m² -
1777744803 20.56° C 63% 1014.3 hPa 0 mm - 876 W/m² -
1777744502 20.56° C 64% 1014.3 hPa 0 mm - 800 W/m² -
1777744198 20.56° C 63% 1014.4 hPa 0 mm - 883 W/m² -
1777743911 20.56° C 66% 1014.4 hPa 0 mm - 874 W/m² -
1777743592 20.56° C 65% 1014.5 hPa 0 mm - 874 W/m² -
1777743289 20° C 65% 1014.6 hPa 0 mm - 894 W/m² -
1777742987 20.56° C 68% 1015 hPa 0 mm - 283 W/m² -
1777742684 20.56° C 68% 1014.7 hPa 0 mm - 884 W/m² -
1777742380 20.56° C 68% 1014.5 hPa 0 mm - 639 W/m² -
1777742076 20° C 69% 1014.6 hPa 0 mm - 916 W/m² -
1777741774 20° C 68% 1014.6 hPa 0 mm - 263 W/m² -
1777741470 20° C 66% 1014.9 hPa 0 mm - 909 W/m² -
1777741166 20° C 69% 1014.8 hPa 0 mm - 929 W/m² -
1777740864 19.44° C 71% 1014.8 hPa 0 mm - 762 W/m² -
1777740560 19.44° C 73% 1015.1 hPa 0 mm - 241 W/m² -

* Rain latest hour (hover to see other rain measurements)
** Current wind speed in m/s (hover to see current wind gust speed)